Regional Weather Roundup
Issued by NWS

Home | Current Version | Previous Version | Text Only | Print | Product List | Glossary Off
Versions: 1 2 3 4 5 6 7 8 9 10 11 12 13 14 15 16 17 18 19 20 21 22 23 24 25 26 27 28 29 30 31 32 33 34 35 36 37 38 39 40 41 42 43 44 45 46 47 48 49 50

906
ASUS44 KLIX 241405
RWRLA
LOUISIANA WEATHER ROUNDUP
NATIONAL WEATHER SERVICE NEW ORLEANS LA
900 AM CDT THU JUL 24 2014

NOTE: "FAIR" INDICATES FEW OR NO CLOUDS BELOW 12,000 FEET WITH NO
      SIGNIFICANT WEATHER AND/OR OBSTRUCTIONS TO VISIBILITY.
      SKY/WX - SKY CONDITION AND SIGNIFICANT WEATHER.
      TMP - AIR TEMPERATURE.    DP   - DEWPOINT TEMPERATURE.
      RH  - RELATIVE HUMIDITY.  PRES - PRESSURE.
      HX  - HEAT INDEX.         WCI  - WIND CHILL INDEX.

*  THESE STATIONS ARE NOT NWS OR FAA STATIONS AND ARE NOT UNDER
   NWS QUALITY CONTROL.

LAZ040-048-061>063-065-066-069-241500-
SOUTHEAST LOUISIANA

CITY           SKY/WX    TMP DP  RH WIND       PRES   REMARKS
N.O. AUDUBON     N/A     86  74  67 MISG        N/A
N.O. INTL ARPT MOSUNNY   81  73  76 CALM      30.01R
N.O. LAKEFRONT MOSUNNY   80  74  81 CALM      30.02R
N.O. DOWNTOWN* FAIR      82  72  69 CALM      30.01S
SLIDELL        SUNNY     83  73  72 CALM      30.01R
BATON ROUGE    SUNNY     81  73  76 CALM      30.02R
BOOTHVILLE       N/A     82  75  79 W3        30.02R
BELLE CHASSE   PTSUNNY   81  74  79 CALM      30.01R
BOGALUSA*      NOT AVBL
GALLIANO*      NOT AVBL
NEW ROADS*     NOT AVBL
GONZALES*      NOT AVBL
HAMMOND*       NOT AVBL
HOUMA*         MOSUNNY   81  73  78 CALM      30.01R HAZE
PORT FOURCHON* CLOUDY    81  75  83 SW10      30.03R HAZE

$$

LAZ041-044-053-054-241500-
SOUTHWEST LOUISIANA

CITY           SKY/WX    TMP DP  RH WIND       PRES   REMARKS
LAKE CHARLES   SUNNY     79  72  79 N6        30.02S
LAFAYETTE      CLOUDY    81  75  82 E3        30.02R
PATTERSON      SUNNY     81  75  83 E3        30.04S
SALT POINT       N/A     83  78  85 CALM      30.00R
NEW IBERIA     MOSUNNY   83  76  79 NE5       30.02R
CHENAULT AIRPK MOSUNNY   75  72  88 N5        30.03S

$$

LAZ027-028-241500-
CENTRAL LOUISIANA

CITY           SKY/WX    TMP DP  RH WIND       PRES   REMARKS
FORT POLK      SUNNY     75  70  84 N7        30.04R
ALEXANDRIA INT SUNNY     77  69  76 N6        30.02R
ALEXANDRIA     SUNNY     78  70  76 VRB3      30.03R

$$

LAZ001-002-241500-
NORTHWEST LOUISIANA

CITY           SKY/WX    TMP DP  RH WIND       PRES   REMARKS
SHREVEPORT     CLOUDY    73  69  87 N6        30.06R
BARKSDALE AFB  CLOUDY    72  69  89 N5        30.07R
DTN SHREVEPORT NOT AVBL

$$

LAZ014-016-241500-
NORTHEAST LOUISIANA

CITY           SKY/WX    TMP DP  RH WIND       PRES   REMARKS
MONROE         CLOUDY    72  71  97 W5        30.05S FOG
TALLULAH       CLOUDY    77  73  87 CALM      30.02S

$$




USA.gov is the U.S. government's official web portal to all federal, state and local government web resources and services.